Weather in Pessac

France     44°48′24″N   0°37′41″E
temp.,
°C
wind,
m/s
gust,
m/s
humid.,
%
clouds,
%
prec.,
mm/h
press.,
hPa
HPBL,
m
22 january, fri
fri2201:00+10sw4158090 1.1 10001226
04:00+10ssw5157867 0.0 996652
07:00+10sw7148783 4.6 9921238
10:00+9wsw112078100 0.6 9951452
13:00+9wnw8166499 1.1 10001884
16:00+10wnw61260100 0.6 10031727
19:00+8w4117096 0.6 1005827
22:00+7w3117499 0.3 1006758
23 january, sat
sat2301:00+7sw388088 0.4 1005290
04:00+7ssw4109194 2.1 1002566
07:00+8w9196894 4.4 9981946
10:00+9wnw13246697 0.9 10002346
13:00+9wnw8145788 1.0 10051928
16:00+9wnw4961100 0.3 10051546
19:00+7wsw2374100 0.4 1004178
22:00+7wsw1175100 0.4 100348
24 january, sun
sun2401:00+6sw1285100 1.3 1003222
04:00+5wsw4787100 0.3 1005311
07:00+5sw499196 0.5 1007665
10:00+7wsw4108199 1.4 10071000
13:00+10wnw7146496 2.8 10071880
16:00+9wnw7146699 0.8 10081778
19:00+7wnw4126899 1.1 10111390
22:00+6w397267 0.1 1013675
25 january, mon
mon2501:00+5w267683 0.3 1015225
04:00+5wsw227899 0.0 101668
07:00+4wsw117999 0.1 101622
10:00+6s2378100 0.0 1018104
13:00+9w366399 0.2 10191296
16:00+9wnw3764100 0.3 10181311
19:00+7wnw2574100 0.3 1020432
22:00+6sw118281 0.0 102129
26 january, tue
tue2601:00+6s128683 0.0 102128
04:00+5s239084 0.0 102189
07:00+4sse269092 0.0 1020158
10:00+6se3781100 0.0 1020270
13:00+8sse3774100 0.0 1020320
16:00+8s3774100 0.0 1018289
19:00+8sw3989100 0.1 1019385
22:00+11w31098100 0.0 1021399